Weather History for Worland, WY

Change the Weather History Date:

Monday, December 31, 2012

  Actual Average Record
Temperature  
Mean Temperature -3 °F 16 °F  
Max Temperature 11 °F 29 °F 50 °F (1996)
Min Temperature -17 °F 3 °F -45 °F (1978)
Degree Days  
Heating Degree Days 68 49  
Month to date heating degree days 1350 1470  
Since 1 July heating degree days 2742 3363  
Cooling Degree Days 0 0  
Month to date cooling degree days 0 0  
Year to date cooling degree days 901 535  
Moisture  
Dew Point -7 °F    
Average Humidity 75    
Maximum Humidity 87    
Minimum Humidity 63    
Precipitation  
Precipitation T in 0.01 in 0.13 in (1998)
Month to date precipitation 0.26 0.23  
Year to date precipitation 2.93 7.57  
Sea Level Pressure  
Sea Level Pressure 30.35 in    
Wind  
Wind Speed 1 mph (South)    
Max Wind Speed 13 mph    
Max Gust Speed -    
Visibility 10 miles    
Events Snow    
T = Trace of Precipitation, MM = Missing Value Source: NWS Daily Summary

Daily Weather History Graph

Daily Weather History Graph

Search for Another Location

Airport:

Trip Planner

Search our weather history database for the weather conditions in past years. The results will help you decide how hot, cold, wet, or windy it might be!

Date:

Astronomy

Dec. 31, 2012 Rise Set
Actual Time 7:46 AM MST 4:44 PM MST
Civil Twilight 7:13 AM MST 5:16 PM MST
Nautical Twilight 6:37 AM MST 5:53 PM MST
Astronomical Twilight 6:02 AM MST 6:28 PM MST
Moon 8:25 PM MST (12/31) 9:22 AM MST (12/31)
Length of Visible Light 10h 03m
Length of Day
8h 57m
Waning Gibbous, 90% of the Moon is Illuminated
Dec 31
Waning Gibbous
Jan 4
Last Quarter
Jan 11
New
Jan 18
First Quarter
Jan 26
Full

Hourly Weather History & Observations

Time (MST) Temp. Windchill Dew Point Humidity Pressure Visibility Wind Dir Wind Speed Gust Speed Precip Events Conditions
1:53 AM -9.0 °F - -14.1 °F 79% 30.30 in 10.0 mi Calm Calm - N/A   Clear
2:53 AM -11.9 °F - -16.1 °F 82% 30.31 in 10.0 mi Calm Calm - N/A   Clear
3:53 AM -14.1 °F - -18.0 °F 82% 30.32 in 10.0 mi Calm Calm - N/A   Clear
4:53 AM -9.9 °F -23.4 °F -13.0 °F 86% 30.32 in 10.0 mi SSW 5.8 mph - N/A   Clear
5:53 AM -13.0 °F - -18.0 °F 78% 30.37 in 10.0 mi Calm Calm - N/A   Clear
6:53 AM -11.9 °F - -15.0 °F 86% 30.37 in 10.0 mi Calm Calm - 0.00 in   Clear
7:53 AM -17.0 °F - -20.9 °F 82% 30.41 in 10.0 mi Calm Calm - N/A   Clear
8:53 AM -15.0 °F - -18.0 °F 86% 30.43 in 10.0 mi Calm Calm - N/A   Clear
9:53 AM -6.0 °F -16.9 °F -9.0 °F 87% 30.42 in 10.0 mi WSW 4.6 mph - N/A   Clear
10:53 AM -2.9 °F - -6.0 °F 87% 30.39 in 10.0 mi Calm Calm - N/A   Clear
11:53 AM 1.9 °F - -2.9 °F 80% 30.36 in 10.0 mi Calm Calm - N/A   Clear
12:53 PM 7.0 °F - -0.9 °F 70% 30.30 in 10.0 mi Calm Calm - N/A   Clear
1:53 PM 10.0 °F - -0.0 °F 64% 30.28 in 10.0 mi Calm Calm - N/A   Clear
2:53 PM 10.0 °F - 1.0 °F 67% 30.30 in 10.0 mi Calm Calm - N/A   Clear
3:53 PM 10.0 °F - 1.9 °F 70% 30.31 in 10.0 mi Calm Calm - N/A   Clear
4:53 PM 1.9 °F -5.6 °F -2.0 °F 83% 30.35 in 10.0 mi NNE 3.5 mph - N/A   Clear
5:53 PM 1.0 °F -8.7 °F -2.9 °F 83% 30.35 in 10.0 mi ESE 4.6 mph - N/A   Clear
6:53 PM 1.9 °F - -2.9 °F 80% 30.37 in 10.0 mi Calm Calm - N/A   Clear
7:53 PM 1.0 °F - -4.0 °F 79% 30.40 in 10.0 mi Calm Calm - N/A   Mostly Cloudy
8:53 PM 3.9 °F -8.2 °F -0.0 °F 84% 30.38 in 10.0 mi South 6.9 mph - N/A   Overcast
9:53 PM 5.0 °F - 1.0 °F 84% 30.37 in 10.0 mi Calm Calm - N/A   Overcast
10:53 PM 7.0 °F - 1.9 °F 80% 30.38 in 10.0 mi Calm Calm - N/A   Overcast
11:53 PM 7.0 °F - 3.0 °F 84% 30.36 in 6.0 mi Calm Calm - 0.00 in Snow Light Snow